Location: Valdosta
(30.8330°N, 83.2790°W)
Time: 20:34:32
(UTC-04:00)

Amateur Radio Satellites - All Passes

Search period start: 24 July 2017 20:04
Search period end: 25 July 2017 20:04
Location: Valdosta, 30.8330°N, 83.2790°W

Satellite Date Start Highest point End Downlink Frequencies (MHz)
Time Altitude Azimuth
nSIGHT-1 24 Jul 20:09:56 20:11:58 16° 127° (SE) 20:14:00 .
ZACube-1 24 Jul 20:12:31 20:14:02 12° 68° (ENE) 20:15:31 437.345
AAUSAT CUBESAT 2 24 Jul 20:21:18 20:24:41 26° 73° (ENE) 20:28:06 437.432
CUBEBUG 2 24 Jul 20:31:07 20:35:50 72° 77° (ENE) 20:40:29 437.445
Oscar 11 24 Jul 20:38:36 20:41:04 15° 69° (ENE) 20:43:32 .
YUBILEINY 24 Jul 20:46:24 20:54:38 43° 282° (WNW) 21:02:56 435.215
AO-73 24 Jul 20:50:27 20:54:19 30° 73° (ENE) 20:58:08 145.935
XW-2A 24 Jul 20:51:31 20:54:41 37° 261° (W) 20:57:52 145.665 - 145.685
HO-68 24 Jul 20:57:51 21:04:31 41° 260° (W) 21:11:15 435.675
CUTE 1.7 + AOD 2 24 Jul 20:58:26 21:01:50 24° 263° (W) 21:05:14 437.475
ISS 24 Jul 21:02:14 21:05:28 74° 132° (SE) 21:08:41 437.550
STRAND 1 24 Jul 21:10:29 21:15:34 72° 285° (WNW) 21:20:38 437.568
SEEDS 24 Jul 21:11:28 21:14:59 27° 263° (W) 21:18:32 437.485
DELFI C3 24 Jul 21:30:05 21:31:41 12° 69° (ENE) 21:33:16 145.870
UWE-3 24 Jul 21:30:43 21:35:02 39° 261° (W) 21:39:17 435.000/436.395/437.385
Tancredo 1 24 Jul 21:33:42 21:35:11 13° 324° (NW) 21:36:41 437.200
nSIGHT-1 24 Jul 21:45:16 21:48:09 30° 319° (NW) 21:51:03 .
ZACube-1 24 Jul 21:45:30 21:49:51 49° 260° (W) 21:54:08 437.345
AAUSAT CUBESAT 2 24 Jul 21:57:20 22:00:04 17° 265° (W) 22:02:49 437.432
AO-85 24 Jul 21:58:09 22:00:52 16° 55° (NE) 22:03:42 145.980
EO-88 24 Jul 22:02:52 22:05:25 18° 72° (ENE) 22:07:57 145.990 - 145.960
Oscar 11 24 Jul 22:12:57 22:16:51 34° 262° (W) 22:20:47 .
AO-73 24 Jul 22:27:27 22:30:29 18° 265° (W) 22:33:30 145.935
ISS 24 Jul 22:41:41 22:42:16 10° 328° (NNW) 22:42:51 437.550
UNISAT 6 24 Jul 22:49:33 22:53:11 26° 97° (E) 22:56:46 437.425
PRISM 24 Jul 22:54:31 22:57:56 24° 97° (E) 23:01:20 437.425
FO-29 24 Jul 22:59:20 23:06:16 72° 102° (ESE) 23:12:19 435.910
BEESAT 3 24 Jul 23:01:47 23:05:45 74° 62° (ENE) 23:09:38 437.485
DELFI C3 24 Jul 23:02:28 23:06:04 34° 262° (W) 23:09:41 145.870
ESTCUBE 1 24 Jul 23:17:01 23:19:17 14° 68° (ENE) 23:21:32 437.505/2401.250
JUGNU 24 Jul 23:27:05 23:31:16 20° 167° (SSE) 23:35:26 437.505
TIGRISAT 24 Jul 23:33:22 23:37:40 89° 105° (ESE) 23:41:55 435.000
EO-88 24 Jul 23:36:17 23:38:55 19° 264° (W) 23:41:33 145.990 - 145.960
AO-85 24 Jul 23:37:14 23:41:20 40° 246° (WSW) 23:45:43 145.980
BEESAT 2 24 Jul 23:40:37 23:44:38 63° 62° (ENE) 23:48:35 435.950
LO-87 24 Jul 23:40:46 23:44:11 41° 75° (ENE) 23:47:37 145.935 - 145.965
RS-15 24 Jul 23:48:20 23:55:40 17° 33° (NNE) 00:02:46 29.354- 29.394
M-CUBED/EXP-1 PRIME 24 Jul 23:53:02 23:57:35 53° 104° (ESE) 00:02:06 437.505
AIST 2D 25 Jul 00:23:27 00:26:40 35° 98° (E) 00:29:54 435.315
UNISAT 6 25 Jul 00:26:40 00:29:39 19° 290° (WNW) 00:32:37 437.425
PRISM 25 Jul 00:29:59 00:33:00 20° 290° (WNW) 00:36:01 437.425
FO-29 25 Jul 00:46:28 00:50:18 16° 299° (WNW) 00:53:55 435.910
DUCHIFAT 1 25 Jul 00:51:13 00:54:39 25° 97° (E) 00:58:04 145.980
ESTCUBE 1 25 Jul 00:51:28 00:55:40 41° 261° (W) 00:59:54 437.505/2401.250
POLYITAN 1 25 Jul 00:52:56 00:56:45 34° 98° (E) 01:00:32 437.675
SPROUT 25 Jul 00:55:25 00:59:30 45° 75° (ENE) 01:03:37 437.525
QB50P2 25 Jul 01:05:41 01:09:50 56° 100° (E) 01:13:57 145.880/145.840
JUGNU 25 Jul 01:14:45 01:19:45 28° 176° (S) 01:24:46 437.505
EO-79 25 Jul 01:17:48 01:22:00 74° 103° (ESE) 01:26:10 145.935-145.965
NANOSAT C BR1 25 Jul 01:18:02 01:22:12 65° 102° (ESE) 01:26:20 145.865
BUGSAT 1 25 Jul 01:22:20 01:24:27 14° 94° (E) 01:26:34 437.445
M-CUBED/EXP-1 PRIME 25 Jul 01:29:16 01:31:28 13° 297° (WNW) 01:33:40 437.505
VELOX 1 25 Jul 01:38:05 01:42:26 61° 259° (W) 01:46:50 145.980
DX 1 25 Jul 01:44:41 01:48:45 40° 74° (ENE) 01:52:51 434.975-435.025
RS-15 25 Jul 01:59:10 02:11:07 65° 59° (ENE) 02:22:20 29.354- 29.394
SRMSAT 25 Jul 02:15:52 02:20:01 20° 167° (SSE) 02:24:09 437.500
50 SAT 25 Jul 02:19:18 02:22:25 35° 261° (W) 02:25:34 437.505
DUCHIFAT 1 25 Jul 02:27:09 02:30:07 19° 289° (WNW) 02:33:03 145.980
UKube-1 25 Jul 02:27:32 02:31:50 89° 94° (E) 02:36:11 .
POLYITAN 1 25 Jul 02:29:55 02:32:11 14° 291° (WNW) 02:34:26 437.675
SPROUT 25 Jul 02:34:26 02:35:33 11° 267° (W) 02:36:41 437.525
O/OREOS (USA 219) 25 Jul 02:36:23 02:40:54 80° 253° (WSW) 02:45:23 437.305
BUGSAT 1 25 Jul 02:56:14 02:59:51 31° 287° (WNW) 03:03:24 437.445
JUGNU 25 Jul 03:03:24 03:08:18 26° 187° (S) 03:13:09 437.505
Oscar 19 25 Jul 03:07:09 03:12:20 87° 283° (WNW) 03:17:31 437.125/150
MOZHAYETS 4 25 Jul 03:22:39 03:26:02 21° 70° (ENE) 03:29:26
DX 1 25 Jul 03:23:10 03:25:02 13° 266° (W) 03:26:55 434.975-435.025
Gurwin Techsat 1B 25 Jul 03:31:35 03:36:55 81° 283° (WNW) 03:42:14 435.225
AO-7 25 Jul 03:40:16 03:45:31 18° 95° (E) 03:50:43 .
BEESAT 25 Jul 03:56:00 04:00:46 76° 76° (ENE) 04:05:32 436.000
Tancredo 1 25 Jul 03:59:44 04:02:27 33° 42° (NE) 04:05:11 437.200
SRMSAT 25 Jul 04:03:42 04:08:39 28° 177° (S) 04:13:36 437.500
ITUPSAT 1 25 Jul 04:09:06 04:13:53 78° 257° (WSW) 04:18:42 437.325
RS-15 25 Jul 04:13:06 04:22:31 29° 257° (WSW) 04:31:36 29.354- 29.394
nSIGHT-1 25 Jul 04:17:10 04:19:34 19° 37° (NE) 04:21:58 .
PCSat 25 Jul 04:32:42 04:36:11 18° 105° (ESE) 04:39:40 145.827
JUGNU 25 Jul 04:53:10 04:56:45 16° 196° (SSW) 05:00:19 437.505
ITAMSAT 1 25 Jul 04:58:19 05:03:31 76° 102° (ESE) 05:08:41 435.822/435.867
MOZHAYETS 4 25 Jul 04:59:03 05:02:58 28° 263° (W) 05:06:54
ISS 25 Jul 05:10:31 05:13:46 76° 44° (NE) 05:17:02 437.550
YUBILEINY 25 Jul 05:12:40 05:13:19 10° 66° (ENE) 05:13:58 435.215
AO-7 25 Jul 05:30:27 05:38:47 75° 289° (WNW) 05:47:04 .
CUBESAT XI-V 25 Jul 05:32:32 05:37:05 72° 259° (W) 05:41:41 437.345
Tancredo 1 25 Jul 05:36:34 05:37:34 11° 234° (SW) 05:38:35 437.200
KKS-1 25 Jul 05:40:02 05:44:28 74° 77° (ENE) 05:48:57 437.445
SRMSAT 25 Jul 05:52:31 05:57:20 26° 187° (S) 06:02:08 437.500
nSIGHT-1 25 Jul 05:53:10 05:55:57 27° 231° (SW) 05:58:45 .
STARS 25 Jul 06:10:04 06:14:26 64° 76° (ENE) 06:18:50 437.465
PCSat 25 Jul 06:13:56 06:19:07 46° 298° (WNW) 06:24:21 145.827
SO-50 25 Jul 06:33:42 06:38:06 50° 114° (ESE) 06:42:29 436.795
XW-2B 25 Jul 06:37:28 06:38:39 11° 94° (E) 06:39:48 145.730 - 145.750
ITAMSAT 1 25 Jul 06:41:46 06:42:16 10° 296° (WNW) 06:42:46 435.822/435.867
CUTE-I 25 Jul 06:46:42 06:50:08 17° 95° (E) 06:53:33 437.470
XW-2C 25 Jul 06:53:19 06:56:06 19° 96° (E) 06:58:53 145.795 - 145.815
NUDT-PHONESAT 25 Jul 07:01:26 07:03:57 17° 96° (E) 07:06:27 437.300
YUBILEINY 25 Jul 07:02:44 07:11:30 75° 83° (E) 07:20:10 435.215
DOVE 4 25 Jul 07:14:35 07:19:47 69° 284° (WNW) 07:24:44 437.250
KAITUO 1B 25 Jul 07:15:08 07:18:22 28° 97° (E) 07:21:38 145.475/437.950
LilacSat-2 25 Jul 07:15:56 07:19:33 44° 99° (E) 07:23:11 437.200
AO-7 25 Jul 07:26:56 07:30:08 13° 306° (NW) 07:33:21 .
XW-2F 25 Jul 07:30:23 07:34:05 63° 100° (E) 07:37:49 145.980 - 146.000
SRMSAT 25 Jul 07:42:28 07:45:55 16° 196° (SSW) 07:49:23 437.500
XW-2D 25 Jul 07:59:15 08:02:49 42° 285° (WNW) 08:06:24 145.860 - 145.880
XW-2B 25 Jul 08:09:29 08:12:52 32° 286° (WNW) 08:16:15 145.730 - 145.750
SO-50 25 Jul 08:16:23 08:18:48 14° 309° (NW) 08:21:12 436.795
XW-2A 25 Jul 08:19:12 08:21:21 16° 96° (E) 08:23:29 145.665 - 145.685
STRAND 1 25 Jul 08:20:35 08:25:44 89° 270° (W) 08:30:55 437.568
CUTE-I 25 Jul 08:25:15 08:30:18 44° 288° (WNW) 08:35:20 437.470
XW-2C 25 Jul 08:27:25 08:30:07 19° 288° (WNW) 08:32:49 145.795 - 145.815
CUBEBUG 2 25 Jul 08:28:29 08:31:40 21° 96° (E) 08:34:47 437.445
HO-68 25 Jul 08:31:00 08:37:59 54° 102° (ESE) 08:44:54 435.675
NUDT-PHONESAT 25 Jul 08:34:58 08:37:42 20° 288° (WNW) 08:40:27 437.300
CUTE 1.7 + AOD 2 25 Jul 08:47:31 08:51:47 85° 102° (ESE) 08:56:03 437.475
KAITUO 1B 25 Jul 08:50:17 08:52:05 13° 290° (WNW) 08:53:51 145.475/437.950
SEEDS 25 Jul 08:59:39 09:03:52 72° 100° (E) 09:08:05 437.485
YUBILEINY 25 Jul 09:02:07 09:07:13 17° 279° (W) 09:12:20 435.215
FO-29 25 Jul 09:05:10 09:10:32 21° 63° (ENE) 09:16:02 435.910
UWE-3 25 Jul 09:25:34 09:29:41 62° 100° (E) 09:33:45 435.000/436.395/437.385
ZACube-1 25 Jul 09:39:10 09:43:08 45° 99° (E) 09:47:05 437.345
AAUSAT CUBESAT 2 25 Jul 09:43:01 09:47:11 77° 284° (WNW) 09:51:21 437.432
UNISAT 6 25 Jul 09:44:03 09:46:29 14° 68° (ENE) 09:48:53 437.425
XW-2A 25 Jul 09:51:43 09:53:56 17° 288° (WNW) 09:56:08 145.665 - 145.685
CUBEBUG 2 25 Jul 10:04:53 10:08:10 22° 289° (WNW) 10:11:23 437.445
Oscar 11 25 Jul 10:04:58 10:09:14 63° 100° (E) 10:13:31 .
AO-73 25 Jul 10:19:14 10:23:18 59° 283° (WNW) 10:27:21 145.935
HO-68 25 Jul 10:19:47 10:25:11 24° 296° (WNW) 10:30:35 435.675
TIGRISAT 25 Jul 10:26:06 10:30:27 40° 74° (ENE) 10:34:44 435.000
M-CUBED/EXP-1 PRIME 25 Jul 10:34:43 10:37:29 22° 66° (ENE) 10:40:25 437.505
DELFI C3 25 Jul 10:44:23 10:48:10 39° 99° (E) 10:51:55 145.870
FO-29 25 Jul 10:47:19 10:54:41 69° 259° (WSW) 11:02:33 435.910
EO-88 25 Jul 11:09:06 11:12:39 49° 100° (E) 11:16:11 145.990 - 145.960
PRISM 25 Jul 11:12:27 11:16:27 57° 259° (W) 11:20:30 437.425
NO-84 25 Jul 11:14:43 11:17:36 86° 305° (NW) 11:20:41 435.350 FM
ZACube-1 25 Jul 11:18:11 11:18:57 10° 292° (WNW) 11:19:44 437.345
UNISAT 6 25 Jul 11:18:19 11:22:46 44° 261° (W) 11:27:10 437.425
POLYITAN 1 25 Jul 11:41:35 11:43:42 14° 68° (ENE) 11:45:47 437.675
QB50P2 25 Jul 11:53:24 11:56:37 21° 71° (ENE) 11:59:50 145.880/145.840
TIGRISAT 25 Jul 12:04:33 12:07:10 15° 266° (W) 12:09:48 435.000
EO-79 25 Jul 12:04:59 12:08:32 26° 72° (ENE) 12:12:05 145.935-145.965
NANOSAT C BR1 25 Jul 12:05:03 12:08:25 23° 72° (ENE) 12:11:48 145.865
AO-85 25 Jul 12:08:11 12:10:38 15° 110° (ESE) 12:13:01 145.980
M-CUBED/EXP-1 PRIME 25 Jul 12:09:33 12:11:51 17° 261° (W) 12:14:17 437.505
DELFI C3 25 Jul 12:21:16 12:22:30 11° 291° (WNW) 12:23:44 145.870
AIST 2D 25 Jul 12:24:54 12:28:19 57° 259° (W) 12:31:45 435.315
BEESAT 3 25 Jul 12:45:59 12:49:46 45° 114° (ESE) 12:53:36 437.485
LO-87 25 Jul 12:46:00 12:49:34 67° 283° (WNW) 12:53:06 145.935 - 145.965
SPROUT 25 Jul 12:48:38 12:50:05 11° 93° (E) 12:51:32 437.525
ESTCUBE 1 25 Jul 12:48:52 12:53:21 62° 101° (E) 12:57:49 437.505/2401.250
DUCHIFAT 1 25 Jul 13:11:56 13:16:05 54° 260° (W) 13:20:15 145.980
POLYITAN 1 25 Jul 13:15:06 13:19:05 38° 261° (W) 13:23:04 437.675
BEESAT 2 25 Jul 13:26:31 13:30:13 40° 113° (ESE) 13:34:00 435.950
QB50P2 25 Jul 13:28:46 13:32:14 24° 263° (W) 13:35:41 145.880/145.840
VELOX 1 25 Jul 13:33:33 13:37:41 37° 99° (E) 13:41:47 145.980
BUGSAT 1 25 Jul 13:39:21 13:43:35 80° 76° (ENE) 13:47:49 437.445
DX 1 25 Jul 13:40:42 13:41:50 11° 94° (E) 13:42:57 434.975-435.025
NANOSAT C BR1 25 Jul 13:40:45 13:44:00 21° 264° (W) 13:47:15 145.865
EO-79 25 Jul 13:41:10 13:44:12 19° 264° (W) 13:47:15 145.935-145.965
50 SAT 25 Jul 13:47:02 13:49:22 17° 96° (E) 13:51:40 437.505
AO-85 25 Jul 13:47:10 13:50:44 29° 302° (WNW) 13:54:12 145.980
RS-15 25 Jul 14:11:32 14:14:56 12° 97° (E) 14:18:20 29.354- 29.394
Oscar 19 25 Jul 14:18:25 14:23:31 78° 76° (ENE) 14:28:38 437.125/150
UKube-1 25 Jul 14:20:35 14:23:58 22° 97° (E) 14:27:21 .
SPROUT 25 Jul 14:22:06 14:26:06 41° 286° (WNW) 14:30:05 437.525
BEESAT 3 25 Jul 14:25:55 14:27:33 12° 308° (NW) 14:29:12 437.485
AO-7 25 Jul 14:34:38 14:39:28 17° 57° (ENE) 14:44:19 .
Gurwin Techsat 1B 25 Jul 14:47:02 14:52:20 88° 257° (WSW) 14:57:41 435.225
O/OREOS (USA 219) 25 Jul 15:04:59 15:08:27 22° 102° (ESE) 15:11:57 437.305
BEESAT 2 25 Jul 15:06:09 15:08:08 13° 308° (NW) 15:10:08 435.950
PCSat 25 Jul 15:07:09 15:12:18 43° 61° (ENE) 15:17:25 145.827
VELOX 1 25 Jul 15:11:12 15:13:46 15° 292° (WNW) 15:16:19 145.980
SO-50 25 Jul 15:12:09 15:13:45 12° 50° (NE) 15:15:21 436.795
DX 1 25 Jul 15:13:59 15:18:11 47° 286° (WNW) 15:22:22 434.975-435.025
50 SAT 25 Jul 15:19:35 15:21:55 17° 288° (WNW) 15:24:15 437.505
UKube-1 25 Jul 15:56:25 15:59:50 23° 289° (WNW) 16:03:15 .
BEESAT 25 Jul 16:01:57 16:06:05 29° 98° (E) 16:10:12 436.000
ITAMSAT 1 25 Jul 16:10:39 16:15:49 66° 75° (ENE) 16:21:01 435.822/435.867
RS-15 25 Jul 16:13:16 16:25:13 72° 112° (ESE) 16:37:29 29.354- 29.394
ITUPSAT 1 25 Jul 16:15:11 16:19:40 41° 100° (E) 16:24:07 437.325
AO-7 25 Jul 16:22:45 16:31:07 88° 254° (WSW) 16:39:33 .
O/OREOS (USA 219) 25 Jul 16:44:03 16:47:41 24° 295° (WNW) 16:51:20 437.305
SO-50 25 Jul 16:50:04 16:54:35 65° 245° (WSW) 16:59:08 436.795
PCSat 25 Jul 16:51:36 16:55:17 19° 255° (WSW) 16:58:58 145.827
MOZHAYETS 4 25 Jul 16:58:34 17:03:08 80° 284° (WNW) 17:07:41
CUBESAT XI-V 25 Jul 17:34:26 17:38:53 42° 99° (E) 17:43:19 437.345
KKS-1 25 Jul 17:37:08 17:40:33 21° 96° (E) 17:43:57 437.445
BEESAT 25 Jul 17:40:04 17:43:37 21° 291° (WNW) 17:47:11 436.000
ITUPSAT 1 25 Jul 17:54:16 17:57:06 16° 292° (WNW) 17:59:55 437.325
ITAMSAT 1 25 Jul 17:54:29 17:55:36 11° 267° (W) 17:56:44 435.822/435.867
LilacSat-2 25 Jul 17:55:30 17:55:56 10° 69° (ENE) 17:56:23 437.200
CUTE-I 25 Jul 18:03:29 18:06:56 18° 67° (ENE) 18:10:24 437.470
YUBILEINY 25 Jul 18:04:43 18:09:20 15° 80° (E) 18:13:57 435.215
STARS 25 Jul 18:05:54 18:08:51 17° 96° (E) 18:11:46 437.465
XW-2F 25 Jul 18:07:30 18:09:22 13° 70° (ENE) 18:11:13 145.980 - 146.000
DOVE 4 25 Jul 18:13:38 18:18:21 64° 76° (ENE) 18:23:23 437.250
AO-7 25 Jul 18:21:14 18:24:38 13° 267° (W) 18:28:04 .
RS-15 25 Jul 18:28:14 18:38:41 32° 313° (NW) 18:49:20 29.354- 29.394
XW-2D 25 Jul 18:34:53 18:38:19 35° 74° (ENE) 18:41:44 145.860 - 145.880
XW-2B 25 Jul 18:44:46 18:48:22 46° 76° (ENE) 18:51:59 145.730 - 145.750
HO-68 25 Jul 18:55:04 19:00:23 23° 64° (ENE) 19:05:42 435.675
XW-2C 25 Jul 19:01:59 19:05:43 87° 78° (ENE) 19:09:29 145.795 - 145.815
NUDT-PHONESAT 25 Jul 19:07:34 19:11:14 73° 78° (ENE) 19:14:54 437.300
CUBESAT XI-V 25 Jul 19:13:15 19:15:50 15° 292° (WNW) 19:18:25 437.345
KKS-1 25 Jul 19:13:20 19:17:00 25° 289° (WNW) 19:20:39 437.445
KAITUO 1B 25 Jul 19:22:49 19:26:28 63° 260° (W) 19:30:07 145.475/437.950
CUBEBUG 2 25 Jul 19:23:01 19:24:18 11° 67° (ENE) 19:25:35 437.445
LilacSat-2 25 Jul 19:26:17 19:29:48 37° 261° (W) 19:33:19 437.200
NO-84 25 Jul 19:28:43 19:32:40 56° 48° (NE) 19:36:51 435.350 FM
CUTE 1.7 + AOD 2 25 Jul 19:34:59 19:38:33 28° 73° (ENE) 19:42:09 437.475
XW-2F 25 Jul 19:39:59 19:43:12 27° 263° (W) 19:46:25 145.980 - 146.000
STARS 25 Jul 19:41:19 19:45:09 30° 288° (WNW) 19:48:57 437.465
CUTE-I 25 Jul 19:41:24 19:46:32 46° 260° (W) 19:51:42 437.470
SEEDS 25 Jul 19:46:24 19:49:41 23° 72° (ENE) 19:52:58 437.485
